Location: Unspecified
(40.7945°N, 0.0000°E)
Time: 10:53:39
(UTC+00:00)

UWE-3 - Pass Details

Date: 21 August 2020
Orbit: 585 x 683 km, 97.6° (Epoch: 22 September)

Event Time Altitude Azimuth Distance (km) Brightness Sun altitude
Rises 04:43:39 0° 16° (NNE) 2,824 ? -6.7°
Reaches altitude 10° 04:45:50 10° 21° (NNE) 1,924 ? -6.3°
Maximum altitude 04:49:56 56° 100° (E) 715 ? -5.6°
Drops below altitude 10° 04:54:05 10° 179° (S) 1,947 ? -4.8°
Sets 04:56:18 0° 183° (S) 2,860 ? -4.4°
